| time (UTC) | temp C | wind direction | speed KPH | gust KPH | rain 1hr cm | rain 24hr cm | rain mn cm | humidity % | barometer mb |
| 20260508090020 | 11 | 219 | 0.0 | 0.0 | 0.00 | 0.00 | 0.00 | 82 | 1016.8 |
| 20260508084504 | 11 | 219 | 0.0 | 3.2 | 0.00 | 0.00 | 0.00 | 81 | 1016.7 |
| 20260508083008 | 11 | 166 | 0.0 | 1.6 | 0.00 | 0.00 | 0.00 | 81 | 1016.6 |
| 20260508081508 | 10 | 169 | 0.0 | 1.6 | 0.00 | 0.00 | 0.00 | 83 | 1016.7 |
| 20260508080019 | 10 | 198 | 0.0 | 1.6 | 0.00 | 0.00 | 0.00 | 84 | 1016.7 |
| 20260508074508 | 9 | 166 | 0.0 | 1.6 | 0.00 | 0.00 | 0.00 | 85 | 1016.6 |
| 20260508073012 | 8 | 166 | 0.0 | 0.0 | 0.00 | 0.00 | 0.00 | 87 | 1016.6 |
| 20260508071522 | 7 | 166 | 0.0 | 1.6 | 0.00 | 0.00 | 0.00 | 88 | 1016.5 |
| 20260508070013 | 7 | 166 | 0.0 | 0.0 | 0.00 | 0.00 | 0.00 | 88 | 1016.4 |
| 20260508064506 | 6 | 166 | 0.0 | 0.0 | 0.00 | 0.00 | 0.00 | 88 | 1016.3 |
| 20260508063013 | 6 | 166 | 0.0 | 0.0 | 0.00 | 0.00 | 0.00 | 88 | 1016.3 |
| 20260508061511 | 6 | 166 | 0.0 | 0.0 | 0.00 | 0.00 | 0.00 | 88 | 1016.2 |
| 20260508060014 | 6 | 166 | 0.0 | 0.0 | 0.00 | 0.00 | 0.00 | 88 | 1016.0 |
| 20260508054518 | 6 | 166 | 0.0 | 1.6 | 0.00 | 0.00 | 0.00 | 88 | 1015.9 |
| 20260508053013 | 6 | 166 | 0.0 | 1.6 | 0.00 | 0.00 | 0.00 | 88 | 1015.8 |
| 20260508051509 | 6 | 166 | 0.0 | 0.0 | 0.00 | 0.00 | 0.00 | 89 | 1015.7 |
| 20260508050019 | 6 | 166 | 0.0 | 0.0 | 0.00 | 0.00 | 0.00 | 89 | 1015.7 |
| 20260508044518 | 6 | 166 | 0.0 | 0.0 | 0.00 | 0.00 | 0.00 | 89 | 1015.7 |
| 20260508043018 | 6 | 166 | 0.0 | 0.0 | 0.00 | 0.00 | 0.00 | 89 | 1015.6 |
| 20260508041518 | 6 | 166 | 0.0 | 1.6 | 0.00 | 0.00 | 0.00 | 89 | 1015.7 |
| 20260508040014 | 6 | 166 | 0.0 | 1.6 | 0.00 | 0.00 | 0.00 | 89 | 1015.6 |
| 20260508034520 | 6 | 146 | 0.0 | 0.0 | 0.00 | 0.00 | 0.00 | 89 | 1015.6 |
| 20260508033018 | 5 | 204 | 0.0 | 0.0 | 0.00 | 0.00 | 0.00 | 88 | 1015.6 |
| 20260508031520 | 6 | 204 | 0.0 | 0.0 | 0.00 | 0.00 | 0.00 | 88 | 1015.6 |
| 20260508030020 | 6 | 204 | 0.0 | 0.0 | 0.00 | 0.00 | 0.00 | 88 | 1015.6 |
| 20260508024520 | 6 | 186 | 0.0 | 1.6 | 0.00 | 0.00 | 0.00 | 89 | 1015.6 |
| 20260508023014 | 6 | 166 | 0.0 | 1.6 | 0.00 | 0.00 | 0.00 | 89 | 1015.6 |
| 20260508021532 | 6 | 193 | 0.0 | 1.6 | 0.00 | 0.00 | 0.00 | 89 | 1015.5 |
| 20260508020023 | 6 | 106 | 0.0 | 1.6 | 0.00 | 0.00 | 0.00 | 89 | 1015.4 |
| 20260508014524 | 6 | 106 | 0.0 | 0.0 | 0.00 | 0.00 | 0.00 | 89 | 1015.4 |
| 20260508013034 | 5 | 106 | 0.0 | 0.0 | 0.00 | 0.00 | 0.00 | 89 | 1015.5 |
| 20260508011510 | 5 | 106 | 0.0 | 0.0 | 0.00 | 0.00 | 0.00 | 89 | 1015.6 |
| 20260508010019 | 5 | 106 | 0.0 | 0.0 | 0.00 | 0.00 | 0.00 | 89 | 1015.7 |
| 20260508004533 | 5 | 106 | 0.0 | 0.0 | 0.00 | 0.00 | 0.00 | 88 | 1015.6 |
| 20260508003010 | 6 | 106 | 0.0 | 0.0 | 0.00 | 0.00 | 0.00 | 88 | 1015.7 |
| 20260508001513 | 6 | 106 | 0.0 | 0.0 | 0.00 | 0.00 | 0.00 | 88 | 1015.7 |
| 20260508000005 | 6 | 106 | 0.0 | 0.0 | 0.00 | 0.00 | 0.00 | 88 | 1015.7 |
| 20260507234518 | 6 | 106 | 0.0 | 0.0 | 0.00 | 0.00 | 0.00 | 88 | 1015.7 |
| 20260507233033 | 6 | 106 | 0.0 | 0.0 | 0.00 | 0.00 | 0.00 | 88 | 1015.7 |
| 20260507231520 | 6 | 106 | 0.0 | 0.0 | 0.00 | 0.00 | 0.00 | 88 | 1015.7 |
| 20260507230015 | 6 | 106 | 0.0 | 0.0 | 0.00 | 0.00 | 0.00 | 87 | 1015.7 |
| 20260507224513 | 7 | 106 | 0.0 | 0.0 | 0.00 | 0.00 | 0.00 | 87 | 1015.7 |
| 20260507223009 | 7 | 106 | 0.0 | 0.0 | 0.00 | 0.00 | 0.00 | 87 | 1015.7 |
| 20260507221524 | 7 | 106 | 0.0 | 1.6 | 0.00 | 0.00 | 0.00 | 86 | 1015.7 |
| 20260507220024 | 7 | 106 | 0.0 | 0.0 | 0.00 | 0.00 | 0.00 | 86 | 1015.6 |
| 20260507214527 | 8 | 106 | 0.0 | 0.0 | 0.00 | 0.00 | 0.00 | 84 | 1015.6 |
| 20260507213016 | 8 | 106 | 1.6 | 1.6 | 0.00 | 0.00 | 0.00 | 85 | 1015.5 |
| 20260507211516 | 8 | 106 | 0.0 | 3.2 | 0.00 | 0.00 | 0.00 | 85 | 1015.4 |
| 20260507210028 | 9 | 106 | 0.0 | 0.0 | 0.00 | 0.00 | 0.00 | 84 | 1015.3 |
| 20260507204523 | 10 | 106 | 0.0 | 0.0 | 0.00 | 0.00 | 0.00 | 84 | 1015.2 |
| 20260507203025 | 10 | 106 | 0.0 | 0.0 | 0.00 | 0.00 | 0.00 | 83 | 1015.1 |
| 20260507201524 | 10 | 106 | 0.0 | 0.0 | 0.00 | 0.00 | 0.00 | 81 | 1014.9 |
| 20260507200024 | 11 | 106 | 0.0 | 1.6 | 0.00 | 0.00 | 0.00 | 79 | 1014.7 |
| 20260507194518 | 11 | 106 | 0.0 | 1.6 | 0.00 | 0.00 | 0.00 | 77 | 1014.7 |
| 20260507193015 | 11 | 226 | 0.0 | 0.0 | 0.00 | 0.00 | 0.00 | 75 | 1014.7 |
| 20260507191527 | 12 | 226 | 0.0 | 1.6 | 0.00 | 0.00 | 0.00 | 73 | 1014.6 |
| 20260507190024 | 12 | 226 | 0.0 | 3.2 | 0.00 | 0.00 | 0.00 | 72 | 1014.4 |
| 20260507184526 | 12 | 226 | 0.0 | 3.2 | 0.00 | 0.00 | 0.00 | 70 | 1014.3 |
| 20260507183025 | 12 | 212 | 0.0 | 3.2 | 0.00 | 0.00 | 0.00 | 70 | 1014.2 |
| 20260507181519 | 12 | 212 | 0.0 | 3.2 | 0.00 | 0.00 | 0.00 | 72 | 1014.2 |
| 20260507180014 | 12 | 200 | 1.6 | 9.7 | 0.00 | 0.00 | 0.00 | 73 | 1014.2 |
| 20260507174535 | 12 | 214 | 1.6 | 11.3 | 0.00 | 0.00 | 0.00 | 72 | 1014.1 |
| 20260507173033 | 12 | 179 | 4.8 | 16.1 | 0.00 | 0.00 | 0.00 | 72 | 1014.0 |
| 20260507171526 | 12 | 167 | 8.0 | 16.1 | 0.00 | 0.00 | 0.00 | 73 | 1014.0 |
| 20260507170025 | 13 | 174 | 8.0 | 14.5 | 0.00 | 0.00 | 0.00 | 72 | 1014.1 |
| 20260507164520 | 13 | 129 | 6.4 | 9.7 | 0.00 | 0.00 | 0.00 | 72 | 1014.0 |
| 20260507163026 | 12 | 188 | 4.8 | 8.0 | 0.00 | 0.00 | 0.00 | 72 | 1014.0 |
| 20260507161513 | 12 | 167 | 3.2 | 8.0 | 0.00 | 0.00 | 0.00 | 72 | 1014.0 |
| 20260507160013 | 12 | 131 | 1.6 | 6.4 | 0.00 | 0.00 | 0.00 | 72 | 1014.0 |
| 20260507154516 | 12 | 169 | 1.6 | 6.4 | 0.00 | 0.00 | 0.00 | 72 | 1014.1 |
| 20260507153010 | 12 | 164 | 4.8 | 12.9 | 0.00 | 0.00 | 0.00 | 72 | 1014.2 |
| 20260507151505 | 12 | 196 | 8.0 | 12.9 | 0.00 | 0.00 | 0.00 | 68 | 1014.3 |
| 20260507150011 | 13 | 153 | 6.4 | 14.5 | 0.00 | 0.00 | 0.00 | 65 | 1014.4 |
| 20260507144514 | 13 | 188 | 9.7 | 16.1 | 0.00 | 0.00 | 0.00 | 63 | 1014.4 |
| 20260507143022 | 13 | 131 | 9.7 | 17.7 | 0.00 | 0.00 | 0.00 | 62 | 1014.4 |
| 20260507141512 | 13 | 198 | 9.7 | 17.7 | 0.00 | 0.00 | 0.00 | 60 | 1014.5 |
| 20260507140012 | 13 | 183 | 9.7 | 17.7 | 0.00 | 0.00 | 0.00 | 60 | 1014.7 |
| 20260507134526 | 14 | 235 | 11.3 | 22.5 | 0.00 | 0.00 | 0.00 | 58 | 1014.7 |
| 20260507133019 | 14 | 201 | 12.9 | 20.9 | 0.00 | 0.00 | 0.00 | 57 | 1014.7 |
| 20260507131524 | 14 | 162 | 11.3 | 20.9 | 0.00 | 0.00 | 0.00 | 57 | 1014.7 |
| 20260507130027 | 15 | 121 | 4.8 | 9.7 | 0.00 | 0.00 | 0.00 | 57 | 1014.7 |
| 20260507124519 | 15 | 183 | 8.0 | 20.9 | 0.00 | 0.00 | 0.00 | 59 | 1014.7 |
| 20260507123010 | 14 | 164 | 11.3 | 17.7 | 0.00 | 0.00 | 0.00 | 58 | 1014.9 |
| 20260507121518 | 14 | 161 | 6.4 | 14.5 | 0.00 | 0.00 | 0.00 | 58 | 1015.1 |
| 20260507120025 | 13 | 129 | 1.6 | 16.1 | 0.00 | 0.00 | 0.00 | 62 | 1015.3 |
| 20260507114520 | 12 | 214 | 3.2 | 14.5 | 0.00 | 0.00 | 0.00 | 66 | 1015.4 |
| 20260507113023 | 12 | 187 | 3.2 | 12.9 | 0.00 | 0.00 | 0.00 | 67 | 1015.5 |
| 20260507111517 | 12 | 193 | 4.8 | 11.3 | 0.00 | 0.00 | 0.00 | 70 | 1015.6 |
| 20260507110015 | 11 | 159 | 3.2 | 11.3 | 0.00 | 0.00 | 0.00 | 72 | 1015.7 |
| 20260507104527 | 11 | 136 | 3.2 | 9.7 | 0.00 | 0.00 | 0.00 | 75 | 1015.8 |
| 20260507103030 | 10 | 141 | 4.8 | 9.7 | 0.00 | 0.00 | 0.00 | 77 | 1015.9 |
| 20260507101507 | 10 | 107 | 3.2 | 9.7 | 0.00 | 0.00 | 0.00 | 78 | 1016.0 |
| 20260507100005 | 9 | 117 | 3.2 | 8.0 | 0.00 | 0.00 | 0.00 | 80 | 1016.0 |
| 20260507094519 | 9 | 193 | 3.2 | 8.0 | 0.00 | 0.00 | 0.00 | 80 | 1015.9 |
| 20260507093016 | 8 | 143 | 3.2 | 8.0 | 0.00 | 0.00 | 0.00 | 82 | 1015.9 |
| 20260507091514 | 8 | 190 | 3.2 | 6.4 | 0.00 | 0.00 | 0.00 | 84 | 1015.9 |